StationID,Date,MaxTemp,MinTemp,Precipitation,Snowfall,SnowDepth
"USC00500775","1968-05-01",,,,0.00,0.00
"USC00500775","1968-05-02",,,,0.00,0.00
"USC00500775","1968-05-03",,,,0.00,0.00
"USC00500775","1968-05-04",51.08,,89.00,0.00,0.00
"USC00500775","1968-05-05",46.94,,13.00,0.00,0.00
"USC00500775","1968-05-06",51.08,,0.00,0.00,0.00
"USC00500775","1968-05-07",51.98,,0.00,0.00,0.00
"USC00500775","1968-05-08",46.94,,0.00,0.00,0.00
"USC00500775","1968-05-09",55.04,,0.00,0.00,0.00
"USC00500775","1968-05-10",55.04,,0.00,0.00,0.00
"USC00500775","1968-05-11",64.04,,0.00,0.00,0.00
"USC00500775","1968-05-12",71.06,,0.00,0.00,0.00
"USC00500775","1968-05-13",69.08,,0.00,0.00,0.00
"USC00500775","1968-05-14",64.94,,0.00,0.00,0.00
"USC00500775","1968-05-15",,,3.00,0.00,0.00
"USC00500775","1968-05-16",55.94,,0.00,0.00,0.00
"USC00500775","1968-05-17",60.98,,0.00,0.00,0.00
"USC00500775","1968-05-18",64.04,,0.00,0.00,0.00
"USC00500775","1968-05-19",66.92,,0.00,0.00,0.00
"USC00500775","1968-05-20",73.94,,0.00,0.00,0.00
"USC00500775","1968-05-21",73.04,,0.00,0.00,0.00
"USC00500775","1968-05-22",57.02,,58.00,0.00,0.00
"USC00500775","1968-05-23",53.96,,3.00,0.00,0.00
"USC00500775","1968-05-24",53.96,,0.00,0.00,0.00
"USC00500775","1968-05-25",60.98,,0.00,0.00,0.00
"USC00500775","1968-05-26",60.08,,10.00,0.00,0.00
"USC00500775","1968-05-27",57.92,,0.00,0.00,0.00
"USC00500775","1968-05-28",62.96,,0.00,0.00,0.00
"USC00500775","1968-05-29",59.00,,13.00,0.00,0.00
"USC00500775","1968-05-30",53.06,,8.00,0.00,0.00
"USC00500775","1968-05-31",51.98,,5.00,0.00,0.00
"USC00500775","1968-06-01",60.98,46.94,3.00,0.00,0.00
"USC00500775","1968-06-02",60.98,46.04,28.00,0.00,0.00
"USC00500775","1968-06-03",50.00,48.02,13.00,0.00,0.00
"USC00500775","1968-06-04",62.06,48.92,3.00,0.00,0.00
"USC00500775","1968-06-05",60.08,51.08,0.00,0.00,0.00
"USC00500775","1968-06-06",55.94,46.04,15.00,0.00,0.00
"USC00500775","1968-06-07",60.08,51.08,8.00,0.00,0.00
"USC00500775","1968-06-08",60.98,51.08,0.00,0.00,0.00
"USC00500775","1968-06-09",62.06,55.04,0.00,0.00,0.00
"USC00500775","1968-06-10",71.96,57.92,0.00,0.00,0.00
"USC00500775","1968-06-11",71.06,53.96,0.00,0.00,0.00
"USC00500775","1968-06-12",66.02,53.96,0.00,0.00,0.00
"USC00500775","1968-06-13",64.04,53.06,0.00,0.00,0.00
"USC00500775","1968-06-14",66.92,57.92,0.00,0.00,0.00
"USC00500775","1968-06-15",64.94,48.92,0.00,0.00,0.00
"USC00500775","1968-06-16",66.02,57.92,0.00,0.00,0.00
"USC00500775","1968-06-17",66.92,55.94,0.00,0.00,0.00
"USC00500775","1968-06-18",66.02,42.08,3.00,0.00,0.00
"USC00500775","1968-06-19",66.02,39.02,5.00,0.00,0.00
"USC00500775","1968-06-20",59.00,55.94,0.00,0.00,0.00
"USC00500775","1968-06-21",59.00,33.08,66.00,0.00,0.00
"USC00500775","1968-06-22",60.08,50.00,5.00,0.00,0.00
"USC00500775","1968-06-23",62.06,39.02,0.00,0.00,0.00
"USC00500775","1968-06-24",59.00,44.96,3.00,0.00,0.00
"USC00500775","1968-06-25",62.96,39.02,10.00,0.00,0.00
"USC00500775","1968-06-26",62.06,42.98,5.00,0.00,0.00
"USC00500775","1968-06-27",69.98,42.08,3.00,0.00,0.00
"USC00500775","1968-06-28",78.08,68.00,0.00,0.00,0.00
"USC00500775","1968-06-29",78.98,69.98,0.00,0.00,0.00
"USC00500775","1968-06-30",78.98,39.92,0.00,0.00,0.00
"USC00500775","1968-07-01",71.96,42.08,5.00,0.00,0.00
"USC00500775","1968-07-02",55.94,48.02,3.00,0.00,0.00
"USC00500775","1968-07-03",64.94,48.02,3.00,0.00,0.00
"USC00500775","1968-07-04",66.02,55.94,25.00,0.00,0.00
"USC00500775","1968-07-05",75.02,62.06,0.00,0.00,0.00
"USC00500775","1968-07-06",75.02,44.96,0.00,0.00,0.00
"USC00500775","1968-07-07",69.08,42.08,0.00,0.00,0.00
"USC00500775","1968-07-08",64.94,62.06,18.00,0.00,0.00
"USC00500775","1968-07-09",66.92,60.08,3.00,0.00,0.00
"USC00500775","1968-07-10",71.06,48.92,5.00,0.00,0.00
"USC00500775","1968-07-11",64.94,44.96,0.00,0.00,0.00
"USC00500775","1968-07-12",,,,0.00,0.00
"USC00500775","1968-07-13",62.96,53.96,,0.00,0.00
"USC00500775","1968-07-14",64.94,53.96,0.00,0.00,0.00
"USC00500775","1968-07-15",64.04,55.04,0.00,0.00,0.00
"USC00500775","1968-07-16",64.04,46.94,28.00,0.00,0.00
"USC00500775","1968-07-17",69.08,48.02,0.00,0.00,0.00
"USC00500775","1968-07-18",68.00,48.02,0.00,0.00,0.00
"USC00500775","1968-07-19",69.98,44.06,0.00,0.00,0.00
"USC00500775","1968-07-20",71.06,37.94,0.00,0.00,0.00
"USC00500775","1968-07-21",71.06,46.94,0.00,0.00,0.00
"USC00500775","1968-07-22",75.92,39.92,0.00,0.00,0.00
"USC00500775","1968-07-23",73.94,44.06,0.00,0.00,0.00
"USC00500775","1968-07-24",75.02,42.98,3.00,0.00,0.00
"USC00500775","1968-07-25",77.00,48.92,0.00,0.00,0.00
"USC00500775","1968-07-26",75.92,46.04,0.00,0.00,0.00
"USC00500775","1968-07-27",73.94,46.04,0.00,0.00,0.00
"USC00500775","1968-07-28",69.08,44.06,0.00,0.00,0.00
"USC00500775","1968-07-29",73.04,51.98,5.00,0.00,0.00
"USC00500775","1968-07-30",66.92,46.94,33.00,0.00,0.00
"USC00500775","1968-07-31",66.92,35.06,0.00,0.00,0.00
"USC00500775","1968-08-01",68.00,33.98,0.00,0.00,0.00
"USC00500775","1968-08-02",60.08,44.96,3.00,0.00,0.00
"USC00500775","1968-08-03",66.92,44.96,0.00,0.00,0.00
"USC00500775","1968-08-04",75.02,35.96,0.00,0.00,0.00
"USC00500775","1968-08-05",80.06,37.04,0.00,0.00,0.00
"USC00500775","1968-08-06",86.00,46.94,0.00,0.00,0.00
"USC00500775","1968-08-07",84.92,46.94,0.00,0.00,0.00
"USC00500775","1968-08-08",78.98,46.94,0.00,0.00,0.00
"USC00500775","1968-08-09",78.98,46.94,0.00,0.00,0.00
"USC00500775","1968-08-10",71.96,39.92,0.00,0.00,0.00
"USC00500775","1968-08-11",64.04,48.92,5.00,0.00,0.00
"USC00500775","1968-08-12",66.92,50.00,0.00,0.00,0.00
"USC00500775","1968-08-13",66.02,48.92,0.00,0.00,0.00
"USC00500775","1968-08-14",60.08,48.92,5.00,0.00,0.00
"USC00500775","1968-08-15",64.94,44.96,36.00,0.00,0.00
"USC00500775","1968-08-16",66.92,48.02,5.00,0.00,0.00
"USC00500775","1968-08-17",71.06,37.94,0.00,0.00,0.00
"USC00500775","1968-08-18",73.04,48.02,0.00,0.00,0.00
"USC00500775","1968-08-19",73.04,41.00,0.00,0.00,0.00
"USC00500775","1968-08-20",64.94,46.94,102.00,0.00,0.00
"USC00500775","1968-08-21",66.02,51.08,20.00,0.00,0.00
"USC00500775","1968-08-22",66.92,37.94,20.00,0.00,0.00
"USC00500775","1968-08-23",69.98,39.02,0.00,0.00,0.00
"USC00500775","1968-08-24",69.98,44.96,0.00,0.00,0.00
"USC00500775","1968-08-25",66.92,39.92,18.00,0.00,0.00
"USC00500775","1968-08-26",66.92,39.92,51.00,0.00,0.00
"USC00500775","1968-08-27",66.92,33.98,152.00,0.00,0.00
"USC00500775","1968-08-28",68.00,33.98,0.00,0.00,0.00
"USC00500775","1968-08-29",66.92,42.08,8.00,0.00,0.00
"USC00500775","1968-08-30",64.04,37.04,0.00,0.00,0.00
"USC00500775","1968-08-31",62.96,30.02,0.00,0.00,0.00
"USC00500775","1968-09-01",64.04,28.94,0.00,0.00,0.00
"USC00500775","1968-09-02",66.02,37.94,0.00,0.00,0.00
"USC00500775","1968-09-03",62.06,30.92,0.00,0.00,0.00
"USC00500775","1968-09-04",57.92,42.98,0.00,0.00,0.00
"USC00500775","1968-09-05",60.08,44.96,0.00,0.00,0.00
"USC00500775","1968-09-06",62.96,32.00,0.00,0.00,0.00
"USC00500775","1968-09-07",59.00,30.92,0.00,0.00,0.00
"USC00500775","1968-09-08",64.94,35.06,0.00,0.00,0.00
"USC00500775","1968-09-09",59.00,46.94,58.00,0.00,0.00
"USC00500775","1968-09-10",62.06,30.92,0.00,0.00,0.00
"USC00500775","1968-09-11",64.04,35.06,0.00,0.00,0.00
"USC00500775","1968-09-12",62.06,30.02,0.00,0.00,0.00
"USC00500775","1968-09-13",60.08,39.02,0.00,0.00,0.00
"USC00500775","1968-09-14",62.06,28.04,0.00,0.00,0.00
"USC00500775","1968-09-15",60.98,28.04,13.00,0.00,0.00
"USC00500775","1968-09-16",60.08,24.98,51.00,0.00,0.00
"USC00500775","1968-09-17",55.94,28.04,25.00,0.00,0.00
"USC00500775","1968-09-18",55.04,26.96,3.00,0.00,0.00
"USC00500775","1968-09-19",53.96,24.98,0.00,0.00,0.00
"USC00500775","1968-09-20",53.06,21.92,0.00,0.00,0.00
"USC00500775","1968-09-21",53.06,21.92,0.00,0.00,0.00
"USC00500775","1968-09-22",51.98,17.06,0.00,0.00,0.00
"USC00500775","1968-09-23",53.06,17.96,0.00,0.00,0.00
"USC00500775","1968-09-24",51.08,26.06,0.00,0.00,0.00
"USC00500775","1968-09-25",57.02,30.02,0.00,0.00,0.00
"USC00500775","1968-09-26",53.96,33.98,13.00,0.00,0.00
"USC00500775","1968-09-27",55.94,35.96,3.00,0.00,0.00
"USC00500775","1968-09-28",55.94,39.02,5.00,0.00,0.00
"USC00500775","1968-09-29",48.92,32.00,94.00,0.00,0.00
"USC00500775","1968-09-30",44.06,28.94,5.00,0.00,0.00
"USC00500775","1969-02-12",24.08,15.98,0.00,0.00,305.00
"USC00500775","1969-02-13",37.04,8.96,0.00,0.00,305.00
"USC00500775","1969-02-14",39.92,24.08,0.00,0.00,305.00
"USC00500775","1969-02-15",30.92,10.04,0.00,0.00,305.00
"USC00500775","1969-02-16",24.98,-4.00,0.00,0.00,305.00
"USC00500775","1969-02-17",33.98,12.02,0.00,0.00,305.00
"USC00500775","1969-02-18",32.00,21.02,0.00,0.00,305.00
"USC00500775","1969-02-19",35.96,26.06,5.00,13.00,305.00
"USC00500775","1969-02-20",33.08,10.94,36.00,51.00,406.00
"USC00500775","1969-02-21",30.92,3.92,0.00,0.00,406.00
"USC00500775","1969-02-22",30.92,3.02,0.00,0.00,406.00
"USC00500775","1969-02-23",33.08,3.02,0.00,0.00,406.00
"USC00500775","1969-02-24",26.06,8.06,0.00,0.00,406.00
"USC00500775","1969-02-25",33.08,23.00,64.00,76.00,483.00
"USC00500775","1969-02-26",42.08,21.02,0.00,0.00,432.00
"USC00500775","1969-02-27",37.04,23.00,0.00,0.00,406.00
"USC00500775","1969-02-28",42.98,15.08,5.00,0.00,406.00
"USC00500775","1969-03-01",35.96,17.96,0.00,0.00,406.00
"USC00500775","1969-03-02",37.04,21.02,0.00,0.00,406.00
"USC00500775","1969-03-03",42.98,21.02,0.00,0.00,381.00
"USC00500775","1969-03-04",37.94,21.02,0.00,0.00,381.00
"USC00500775","1969-03-05",35.96,6.08,0.00,0.00,381.00
"USC00500775","1969-03-06",42.98,28.04,0.00,0.00,356.00
"USC00500775","1969-03-07",46.94,12.02,0.00,0.00,356.00
"USC00500775","1969-03-08",44.06,19.04,0.00,0.00,356.00
"USC00500775","1969-03-09",42.08,28.04,0.00,0.00,356.00
"USC00500775","1969-03-10",46.04,26.06,0.00,0.00,330.00
"USC00500775","1969-03-11",41.00,28.04,0.00,0.00,330.00
"USC00500775","1969-03-12",42.08,10.04,0.00,0.00,330.00
"USC00500775","1969-03-13",37.94,1.04,0.00,0.00,305.00
"USC00500775","1969-03-14",30.92,-4.00,0.00,0.00,305.00
"USC00500775","1969-03-15",30.02,12.02,0.00,3.00,305.00
"USC00500775","1969-03-16",26.96,-5.08,0.00,0.00,305.00
"USC00500775","1969-03-17",26.96,8.06,0.00,0.00,305.00
"USC00500775","1969-03-18",30.02,10.04,0.00,0.00,305.00
"USC00500775","1969-03-19",35.96,12.92,0.00,0.00,305.00
"USC00500775","1969-03-20",41.00,32.00,10.00,0.00,305.00
"USC00500775","1969-03-21",37.04,32.00,0.00,0.00,305.00
"USC00500775","1969-03-22",41.00,26.06,0.00,0.00,305.00
"USC00500775","1969-03-23",39.02,24.98,0.00,0.00,305.00
"USC00500775","1969-03-24",39.02,19.04,0.00,0.00,254.00
"USC00500775","1969-03-25",35.06,12.92,10.00,13.00,279.00
"USC00500775","1969-03-26",39.92,24.08,0.00,0.00,279.00
"USC00500775","1969-03-27",39.02,19.94,0.00,0.00,254.00
"USC00500775","1969-03-28",39.92,30.02,0.00,0.00,254.00
"USC00500775","1969-03-29",42.98,17.96,0.00,0.00,254.00
"USC00500775","1969-03-30",44.96,24.08,10.00,0.00,254.00
"USC00500775","1969-03-31",46.04,24.98,10.00,0.00,254.00
"USC00500775","1969-04-01",46.94,24.08,0.00,0.00,254.00
"USC00500775","1969-04-02",48.02,23.00,0.00,0.00,254.00
"USC00500775","1969-04-03",50.00,21.02,0.00,0.00,229.00
"USC00500775","1969-04-04",46.94,19.04,0.00,0.00,229.00
"USC00500775","1969-04-05",39.92,26.96,0.00,0.00,229.00
"USC00500775","1969-04-06",44.96,33.08,0.00,0.00,203.00
"USC00500775","1969-04-07",48.92,30.92,0.00,0.00,127.00
"USC00500775","1969-04-08",44.06,30.92,0.00,0.00,127.00
"USC00500775","1969-04-09",51.08,32.00,0.00,0.00,102.00
"USC00500775","1969-04-10",48.02,33.98,0.00,0.00,76.00
"USC00500775","1969-04-11",53.96,30.02,0.00,0.00,76.00
"USC00500775","1969-04-12",50.00,28.94,0.00,0.00,51.00
"USC00500775","1969-04-13",51.98,26.06,0.00,0.00,0.00
"USC00500775","1969-04-14",48.02,26.96,0.00,0.00,0.00
"USC00500775","1969-04-15",48.02,33.08,0.00,0.00,0.00
"USC00500775","1969-04-16",55.04,35.96,0.00,0.00,0.00
"USC00500775","1969-04-17",55.04,35.06,0.00,0.00,0.00
"USC00500775","1969-04-18",55.04,33.98,0.00,0.00,0.00
"USC00500775","1969-04-19",55.04,21.92,0.00,0.00,0.00
"USC00500775","1969-04-20",51.08,21.92,13.00,0.00,0.00
"USC00500775","1969-04-21",48.02,24.98,3.00,0.00,0.00
"USC00500775","1969-04-22",48.02,24.08,0.00,0.00,0.00
"USC00500775","1969-04-23",53.06,30.92,0.00,0.00,0.00
"USC00500775","1969-04-24",53.06,21.02,0.00,0.00,0.00
"USC00500775","1969-04-25",51.08,32.00,0.00,0.00,0.00
"USC00500775","1969-04-26",53.06,35.96,3.00,0.00,0.00
"USC00500775","1969-04-27",50.00,33.98,0.00,0.00,0.00
"USC00500775","1969-04-28",48.92,23.00,0.00,0.00,0.00
"USC00500775","1969-04-29",44.96,37.04,0.00,0.00,0.00
"USC00500775","1969-04-30",50.00,30.92,0.00,0.00,0.00
"USC00500775","1969-05-01",51.08,24.98,0.00,0.00,0.00
"USC00500775","1969-05-02",55.04,33.98,0.00,0.00,0.00
"USC00500775","1969-05-03",53.06,30.92,0.00,0.00,0.00
"USC00500775","1969-05-04",48.92,28.04,0.00,0.00,0.00
"USC00500775","1969-05-05",48.02,32.00,18.00,0.00,0.00
"USC00500775","1969-05-06",48.02,35.06,0.00,0.00,0.00
"USC00500775","1969-05-07",51.98,28.94,3.00,0.00,0.00
"USC00500775","1969-05-08",48.92,30.02,13.00,0.00,0.00
"USC00500775","1969-05-09",55.94,21.92,0.00,0.00,0.00
"USC00500775","1969-05-10",60.08,41.00,0.00,0.00,0.00
"USC00500775","1969-05-11",59.00,37.04,3.00,0.00,0.00
"USC00500775","1969-05-12",51.98,37.94,5.00,0.00,0.00
"USC00500775","1969-05-13",55.04,24.98,0.00,0.00,0.00
"USC00500775","1969-05-14",60.08,26.96,0.00,0.00,0.00
"USC00500775","1969-05-15",53.96,26.06,0.00,0.00,0.00
"USC00500775","1969-05-16",55.04,26.06,0.00,0.00,0.00
"USC00500775","1969-05-17",62.96,26.06,0.00,0.00,0.00
"USC00500775","1969-05-18",62.06,28.94,0.00,0.00,0.00
"USC00500775","1969-05-19",62.06,28.04,0.00,0.00,0.00
"USC00500775","1969-05-20",64.04,39.92,0.00,0.00,0.00
"USC00500775","1969-05-21",62.06,39.92,0.00,0.00,0.00
"USC00500775","1969-05-22",60.08,39.92,10.00,0.00,0.00
"USC00500775","1969-05-23",69.98,30.02,0.00,0.00,0.00
"USC00500775","1969-05-24",78.98,44.96,0.00,0.00,0.00
"USC00500775","1969-05-25",80.06,37.94,0.00,0.00,0.00
"USC00500775","1969-05-26",82.04,37.04,0.00,0.00,0.00
"USC00500775","1969-05-27",64.94,37.94,13.00,0.00,0.00
"USC00500775","1969-05-28",62.06,42.08,0.00,0.00,0.00
"USC00500775","1969-05-29",60.08,37.94,0.00,0.00,0.00
"USC00500775","1969-05-30",62.06,35.96,0.00,0.00,0.00
"USC00500775","1969-05-31",,,0.00,0.00,0.00
"USC00500775","1969-06-01",57.92,30.92,0.00,0.00,0.00
"USC00500775","1969-06-02",62.96,51.98,0.00,0.00,0.00
"USC00500775","1969-06-03",69.08,55.94,0.00,0.00,0.00
"USC00500775","1969-06-04",66.92,46.04,0.00,0.00,0.00
"USC00500775","1969-06-05",57.02,48.92,0.00,0.00,0.00
"USC00500775","1969-06-06",59.00,53.06,0.00,0.00,0.00
"USC00500775","1969-06-07",57.02,39.02,0.00,0.00,0.00
"USC00500775","1969-06-08",64.04,55.04,0.00,0.00,0.00
"USC00500775","1969-06-09",62.06,44.06,3.00,0.00,0.00
"USC00500775","1969-06-10",60.08,50.00,0.00,0.00,0.00
"USC00500775","1969-06-11",60.08,44.06,0.00,0.00,0.00
"USC00500775","1969-06-12",62.06,51.98,0.00,0.00,0.00
"USC00500775","1969-06-13",73.94,59.00,0.00,0.00,0.00
"USC00500775","1969-06-14",91.04,57.92,0.00,0.00,0.00
"USC00500775","1969-06-15",91.04,51.98,0.00,0.00,0.00
"USC00500775","1969-06-16",75.02,55.04,0.00,0.00,0.00
"USC00500775","1969-06-17",,,0.00,0.00,0.00
"USC00500775","1969-06-18",66.02,50.00,0.00,0.00,0.00
"USC00500775","1969-06-19",66.92,53.96,3.00,0.00,0.00
"USC00500775","1969-06-20",66.92,51.98,0.00,0.00,0.00
"USC00500775","1969-06-21",69.08,57.92,0.00,0.00,0.00
"USC00500775","1969-06-22",73.94,60.08,0.00,0.00,0.00
"USC00500775","1969-06-23",73.04,51.08,3.00,0.00,0.00
"USC00500775","1969-06-24",68.00,55.04,0.00,0.00,0.00
"USC00500775","1969-06-25",71.06,57.92,0.00,0.00,0.00
"USC00500775","1969-06-26",73.04,57.02,0.00,0.00,0.00
"USC00500775","1969-06-27",78.08,64.94,0.00,0.00,0.00
"USC00500775","1969-06-28",73.04,59.00,0.00,0.00,0.00
"USC00500775","1969-06-29",71.96,57.92,0.00,0.00,0.00
"USC00500775","1969-06-30",73.94,62.96,0.00,0.00,0.00
"USC00500775","1969-10-17",57.92,50.00,0.00,0.00,0.00
"USC00500775","1969-10-18",51.08,28.94,0.00,0.00,0.00
"USC00500775","1969-10-19",51.08,37.04,0.00,0.00,0.00
"USC00500775","1969-10-20",50.00,21.92,0.00,0.00,0.00
"USC00500775","1969-10-21",44.06,21.02,0.00,0.00,0.00
"USC00500775","1969-10-22",42.98,17.06,0.00,0.00,0.00
"USC00500775","1969-10-23",41.00,15.08,0.00,0.00,0.00
"USC00500775","1969-10-24",41.00,12.92,0.00,0.00,0.00
"USC00500775","1969-10-25",42.08,5.00,0.00,0.00,0.00
"USC00500775","1969-10-26",37.94,8.06,0.00,0.00,0.00
"USC00500775","1969-10-27",35.06,12.92,0.00,0.00,0.00
"USC00500775","1969-10-28",39.92,32.00,0.00,0.00,0.00
"USC00500775","1969-10-29",39.92,33.08,0.00,0.00,0.00
"USC00500775","1969-10-30",44.06,24.08,0.00,0.00,0.00
"USC00500775","1969-10-31",44.06,32.00,0.00,0.00,0.00
"USC00500775","1969-11-01",42.08,30.02,,,
"USC00500775","1969-11-02",44.96,35.06,,,
"USC00500775","1969-11-03",51.98,26.06,,,
"USC00500775","1969-11-04",53.96,21.02,,,
"USC00500775","1969-11-05",42.98,17.06,,,
"USC00500775","1969-11-06",37.94,15.98,,,
"USC00500775","1969-11-07",35.06,19.94,,,
"USC00500775","1969-11-08",33.98,14.00,,,
"USC00500775","1969-11-09",30.92,15.08,,,
"USC00500775","1969-11-10",32.00,3.92,,,
"USC00500775","1969-11-11",39.92,-0.04,,,
"USC00500775","1969-11-12",26.06,3.92,,,
"USC00500775","1969-11-13",26.06,3.92,,,
"USC00500775","1969-11-14",33.98,-2.02,,,
"USC00500775","1969-11-15",28.94,-9.04,48.00,,127.00
"USC00500775","1969-11-16",14.00,-11.02,0.00,0.00,127.00
"USC00500775","1969-11-17",8.96,-14.98,0.00,0.00,127.00
"USC00500775","1969-11-18",12.02,-11.92,0.00,0.00,127.00
"USC00500775","1969-11-19",15.08,-4.00,0.00,0.00,127.00
"USC00500775","1969-11-20",17.96,5.00,0.00,0.00,127.00
"USC00500775","1969-11-21",24.08,8.06,0.00,0.00,127.00
"USC00500775","1969-11-22",30.02,10.04,0.00,0.00,127.00
"USC00500775","1969-11-23",30.02,10.04,0.00,0.00,127.00
"USC00500775","1969-11-24",30.02,10.04,64.00,33.00,152.00
"USC00500775","1969-11-25",33.08,17.96,0.00,0.00,152.00
"USC00500775","1969-11-26",41.00,21.02,51.00,0.00,127.00
"USC00500775","1969-11-27",42.98,30.92,0.00,0.00,127.00
"USC00500775","1969-11-28",42.08,33.08,0.00,0.00,127.00
"USC00500775","1969-11-29",39.02,24.08,28.00,0.00,102.00
"USC00500775","1969-11-30",33.98,21.92,0.00,0.00,102.00
"USC00500775","1969-12-01",30.92,14.00,0.00,0.00,102.00
"USC00500775","1969-12-02",33.98,17.96,0.00,0.00,102.00
"USC00500775","1969-12-03",35.96,28.94,0.00,0.00,102.00
"USC00500775","1969-12-04",39.92,26.96,0.00,0.00,102.00
"USC00500775","1969-12-05",41.00,32.00,0.00,0.00,76.00
"USC00500775","1969-12-06",44.06,30.02,0.00,0.00,76.00
"USC00500775","1969-12-07",42.08,30.02,0.00,0.00,76.00
"USC00500775","1969-12-08",33.98,21.02,0.00,0.00,76.00
"USC00500775","1969-12-09",35.06,21.92,13.00,13.00,76.00
"USC00500775","1969-12-10",35.96,21.92,13.00,13.00,102.00
"USC00500775","1969-12-11",33.08,8.06,0.00,0.00,102.00
"USC00500775","1969-12-12",15.08,3.92,0.00,0.00,102.00
"USC00500775","1969-12-13",17.06,6.08,0.00,0.00,102.00
"USC00500775","1969-12-14",24.08,15.08,79.00,127.00,127.00
"USC00500775","1969-12-15",37.04,8.06,81.00,25.00,152.00
"USC00500775","1969-12-16",37.94,28.04,0.00,0.00,152.00
"USC00500775","1969-12-17",39.92,26.96,0.00,0.00,152.00
"USC00500775","1969-12-18",39.92,23.00,0.00,0.00,127.00
"USC00500775","1969-12-19",42.08,23.00,0.00,0.00,102.00
"USC00500775","1969-12-20",46.04,23.00,0.00,0.00,102.00
"USC00500775","1969-12-21",39.02,10.94,0.00,0.00,102.00
"USC00500775","1969-12-22",39.92,6.98,0.00,0.00,102.00
"USC00500775","1969-12-23",33.08,12.02,0.00,0.00,102.00
"USC00500775","1969-12-24",35.96,10.94,58.00,76.00,152.00
"USC00500775","1969-12-25",28.04,15.08,3.00,13.00,152.00
"USC00500775","1969-12-26",30.02,15.08,8.00,25.00,178.00
"USC00500775","1969-12-27",28.94,17.96,0.00,0.00,178.00
"USC00500775","1969-12-28",,,0.00,0.00,
"USC00500775","1969-12-29",,,0.00,0.00,
"USC00500775","1969-12-30",,,0.00,0.00,
"USC00500775","1969-12-31",,,0.00,0.00,
"USC00500775","1970-01-05",12.02,-13.00,0.00,0.00,127.00
"USC00500775","1970-01-06",12.92,-13.00,0.00,0.00,127.00
"USC00500775","1970-01-07",-0.04,-16.06,0.00,0.00,127.00
"USC00500775","1970-01-08",8.06,-9.04,0.00,0.00,127.00
"USC00500775","1970-01-09",10.04,-9.94,0.00,0.00,127.00
"USC00500775","1970-01-10",12.02,-9.94,0.00,0.00,127.00
"USC00500775","1970-01-11",3.92,-16.06,0.00,0.00,127.00
"USC00500775","1970-01-12",8.96,-18.94,0.00,0.00,127.00
"USC00500775","1970-01-13",8.06,-11.02,0.00,0.00,127.00
"USC00500775","1970-01-14",6.08,-7.06,0.00,0.00,127.00
"USC00500775","1970-01-15",5.00,-0.04,0.00,0.00,127.00
"USC00500775","1970-01-16",8.06,-9.94,0.00,0.00,127.00
"USC00500775","1970-01-17",8.96,-11.92,0.00,0.00,127.00
"USC00500775","1970-01-18",1.04,-18.04,0.00,0.00,127.00
"USC00500775","1970-01-19",8.96,-22.00,0.00,0.00,127.00
"USC00500775","1970-01-20",19.94,1.94,0.00,0.00,127.00
"USC00500775","1970-01-21",33.08,3.02,0.00,0.00,127.00
"USC00500775","1970-01-22",35.06,26.96,239.00,0.00,127.00
"USC00500775","1970-01-23",33.98,12.02,0.00,0.00,127.00
"USC00500775","1970-01-24",26.06,1.04,0.00,0.00,127.00
"USC00500775","1970-01-25",21.92,-2.92,0.00,0.00,127.00
"USC00500775","1970-01-26",19.94,5.00,0.00,0.00,127.00
"USC00500775","1970-01-27",17.06,-7.96,0.00,0.00,127.00
"USC00500775","1970-01-28",19.94,-5.98,8.00,13.00,127.00
"USC00500775","1970-01-29",19.94,-5.08,28.00,64.00,203.00
"USC00500775","1970-01-30",19.04,-5.08,0.00,0.00,203.00
"USC00500775","1970-01-31",24.98,3.92,0.00,0.00,203.00
"USC00500775","1970-02-01",21.92,12.92,0.00,0.00,203.00
"USC00500775","1970-02-02",24.98,6.98,0.00,0.00,203.00
"USC00500775","1970-02-03",26.96,6.08,41.00,58.00,254.00
"USC00500775","1970-02-04",19.94,-5.08,0.00,0.00,254.00
"USC00500775","1970-02-05",23.00,5.00,0.00,0.00,254.00
"USC00500775","1970-02-06",39.92,10.94,0.00,0.00,254.00
"USC00500775","1970-02-07",33.98,19.04,0.00,0.00,254.00
"USC00500775","1970-02-08",37.04,21.02,0.00,0.00,254.00
"USC00500775","1970-02-09",35.06,23.00,0.00,0.00,254.00
"USC00500775","1970-02-10",,,0.00,0.00,
"USC00500775","1970-02-11",,,0.00,0.00,
"USC00500775","1970-02-12",,,0.00,0.00,
"USC00500775","1970-02-13",,,0.00,0.00,
"USC00500775","1970-02-14",46.94,21.02,0.00,0.00,178.00
"USC00500775","1970-02-15",42.08,35.06,0.00,0.00,178.00
"USC00500775","1970-02-16",39.92,26.96,0.00,0.00,127.00
"USC00500775","1970-02-17",39.92,19.94,0.00,0.00,127.00
"USC00500775","1970-02-18",41.00,33.08,0.00,0.00,127.00
"USC00500775","1970-02-19",42.98,24.08,0.00,0.00,127.00
"USC00500775","1970-02-20",41.00,23.00,0.00,0.00,127.00
"USC00500775","1970-02-21",33.98,17.96,0.00,0.00,127.00
"USC00500775","1970-02-22",44.96,33.98,0.00,0.00,127.00
"USC00500775","1970-02-23",42.98,28.04,0.00,0.00,127.00
"USC00500775","1970-02-24",46.04,24.08,81.00,0.00,102.00
"USC00500775","1970-02-25",39.92,28.04,0.00,0.00,102.00
"USC00500775","1970-02-26",41.00,30.92,0.00,0.00,102.00
"USC00500775","1970-02-27",41.00,24.08,0.00,0.00,102.00
"USC00500775","1970-02-28",44.96,19.04,0.00,0.00,102.00
"USC00500775","1970-03-01",48.02,21.02,0.00,0.00,102.00
"USC00500775","1970-03-02",39.02,15.98,0.00,0.00,102.00
"USC00500775","1970-03-03",35.96,15.08,0.00,0.00,102.00
"USC00500775","1970-03-04",37.94,15.98,0.00,0.00,102.00
"USC00500775","1970-03-05",39.02,17.96,0.00,0.00,102.00
"USC00500775","1970-03-06",37.94,15.08,0.00,0.00,102.00
"USC00500775","1970-03-07",41.00,17.96,5.00,38.00,152.00
"USC00500775","1970-03-08",35.06,12.02,0.00,0.00,152.00
"USC00500775","1970-03-09",33.08,3.02,0.00,0.00,152.00
"USC00500775","1970-03-10",41.00,19.04,0.00,0.00,152.00
"USC00500775","1970-03-11",46.94,26.96,0.00,0.00,152.00
"USC00500775","1970-03-12",48.92,28.04,0.00,0.00,152.00
"USC00500775","1970-03-13",44.96,24.08,0.00,0.00,152.00
"USC00500775","1970-03-14",44.96,17.06,0.00,0.00,127.00